#timestamp,LO_Frequency,Hit,StdDev 
1605535215.3,286047001.7,N
1605535235.1,286047000.4,N
1605535236.0,286047000.4,N
1605535255.8,286046999.8,N
1605535275.7,286047000.6,N
1605535295.5,286047001.0,N
1605535315.3,286047001.2,N
1605535335.2,286046998.1,N
1605535355.0,286047000.3,N
1605535355.9,286047000.3,N
1605535375.8,286047000.9,N
1605535395.6,286047000.7,N
1605535415.4,286047001.1,N
1605535435.3,286047001.1,N
1605535455.1,286047000.7,N
1605535475.8,286046999.7,N
1605535495.7,286046999.8,N
1605535515.5,286047000.1,N
1605535535.4,286047002.6,N
1605535555.2,286047000.5,N
1605535575.0,286047000.6,N
1605535575.9,286047000.6,N
1605535595.8,286046998.5,N
1605535615.6,286047000.0,N
1605535635.4,286047002.8,N
1605535655.3,286047002.2,N
1605535675.1,286047002.0,N
1605535695.9,286047002.5,N
1605535715.7,286047002.1,N
1605535735.5,286047000.6,N
1605535755.4,286047004.0,Y
1605535775.2,286046999.8,P
1605535795.0,286047000.3,N
1605535795.9,286047000.3,N
1605535815.8,286047000.7,N
1605535835.6,286047002.5,Y
1605535855.5,286047002.3,P
1605535875.3,286047000.0,N
1605535895.1,286047002.3,N
1605535915.9,286047000.4,N
1605535935.7,286047000.4,N
1605535955.5,286046998.1,N
1605535975.4,286046998.4,N
1605535995.2,286047001.2,N
1605536015.1,286046999.0,N
1605536016.0,286046999.0,N
1605536035.8,286046996.9,N
1605536055.6,286046999.2,N
1605536075.5,286047001.0,N
1605536095.3,286046998.8,N
1605536115.1,286047000.6,N
1605536135.9,286047002.4,N
1605536155.7,286047000.3,N
1605536175.6,286047000.1,N
1605536195.4,286047002.8,N
1605536215.2,286047000.7,N
1605536235.1,286047001.0,N
1605536236.0,286047001.0,N
1605536255.8,286047000.0,N
1605536275.6,286047001.4,N
1605536295.5,286047004.4,Y
1605536315.3,286047002.5,P
1605536335.2,286047000.5,N
1605536355.9,286047001.1,N
1605536375.7,286047000.6,N
1605536395.6,286047002.1,N
1605536415.4,286046999.7,N
1605536435.2,286047000.7,N
1605536455.1,286047000.4,N
1605536456.0,286047000.4,N
1605536475.8,286047000.6,N
1605536495.7,286047000.7,N
1605536515.5,286047000.5,N
1605536535.3,286046998.3,N
1605536555.2,286046998.7,N
1605536575.0,286046998.4,N
1605536575.9,286046998.4,N
1605536595.7,286046998.5,N
1605536615.6,286046999.0,N
1605536635.4,286046998.6,N
1605536655.3,286046998.9,N
1605536675.1,286046999.2,N
1605536676.0,286046999.2,N
1605536695.8,286046999.4,N
1605536715.7,286047000.7,N
1605536735.5,286047001.1,N
1605536755.3,286046998.9,N
1605536775.2,286046999.2,N
1605536795.0,286046999.3,N
1605536795.9,286046999.3,N
1605536815.8,286046999.0,N
1605536835.6,286046999.2,N
1605536855.4,286046998.9,N
1605536875.3,286046998.9,N
1605536895.1,286046998.4,N
1605536915.8,286046998.2,N
1605536935.7,286046998.3,N
1605536955.5,286047000.8,N
1605536975.4,286046998.1,N
1605536995.2,286046999.3,N
1605537015.0,286046999.2,N
1605537015.9,286046999.2,N
1605537035.8,286046996.6,Y
1605537055.6,286046996.5,P
1605537075.5,286046998.7,N
1605537095.3,286046998.8,N
1605537115.1,286047000.7,N
1605537135.9,286047001.8,N
1605537155.7,286046999.9,N
1605537175.5,286047002.3,N
1605537195.4,286047000.0,N
1605537215.2,286047000.9,N
1605537235.1,286047000.6,N
1605537236.0,286047000.6,N
1605537255.8,286047002.7,N
1605537275.6,286047001.8,N
1605537295.5,286047002.2,N
1605537315.3,286047003.2,N
1605537335.1,286047003.4,N
1605537355.9,286047004.1,N
1605537375.7,286047003.5,N
1605537395.5,286047003.3,N
1605537415.4,286047005.8,N
1605537435.2,286047005.4,N
1605537455.1,286047005.1,N
1605537456.0,286047005.1,N
1605537475.8,286047004.9,N
1605537495.6,286047004.5,N
1605537515.5,286047005.5,N
1605537535.3,286047003.3,N
1605537555.1,286047001.7,N
1605537575.9,286047003.5,N
1605537595.7,286047005.9,N
1605537615.6,286047004.7,N
1605537635.4,286047005.0,N
1605537655.2,286047004.8,N
1605537675.1,286047004.8,N
1605537676.0,286047004.8,N
1605537695.8,286047004.5,N
1605537715.6,286047004.9,N
1605537735.5,286047003.0,N
1605537755.3,286047003.3,N
1605537775.2,286047004.7,Y
1605537795.0,286047002.4,P
1605537795.9,286047002.4,P
1605537815.7,286047000.9,N
1605537835.6,286047002.8,N
1605537855.4,286047001.0,N
1605537875.3,286047001.0,N
1605537895.1,286046998.6,N
1605537896.0,286046998.6,N
1605537915.8,286046998.1,N
1605537935.7,286047000.6,N
1605537955.5,286047000.7,N
1605537975.3,286046999.8,N
1605537995.2,286047000.7,N
1605538015.0,286047001.0,N
1605538015.9,286047001.0,N
1605538035.8,286047002.6,N
1605538055.6,286047001.4,N
1605538075.4,286047002.6,N
1605538095.3,286047000.9,N
1605538115.1,286047000.6,N
1605538135.8,286047000.5,N
1605538155.7,286047000.2,N
1605538175.5,286047002.8,N
1605538195.3,286047001.0,N
1605538215.2,286046998.6,N
1605538235.0,286046998.7,N
1605538235.9,286046998.7,N
1605538255.8,286046998.1,N
1605538275.6,286046999.8,N
1605538295.4,286047000.2,N
1605538315.3,286046998.8,N
1605538335.1,286047000.3,N
1605538355.8,286047002.6,N
1605538375.7,286047000.5,N
1605538395.5,286047000.7,N
1605538415.4,286046998.2,N
1605538435.2,286046999.6,N
1605538455.0,286046996.6,N
1605538455.9,286046996.6,N
1605538475.8,286046998.2,N
1605538495.6,286046998.5,N
1605538515.4,286046998.7,N
1605538535.3,286046998.8,N
1605538555.1,286046998.1,N
1605538575.9,286047000.0,N
1605538595.7,286047000.8,N
1605538615.5,286046998.1,N
1605538635.4,286046999.6,N
1605538655.2,286046999.0,N
1605538675.0,286047000.9,N
1605538675.9,286047000.9,N
1605538695.8,286046998.2,N
1605538715.6,286046999.0,N
1605538735.5,286046995.0,Y
1605538755.3,286046996.4,P
1605538775.1,286046995.6,P
1605538795.9,286046996.2,N
